SCP
-0 0 0 0 0 0 0 1 0 0 0 0 0 -0 0 0 0 0 0 0 0 0 0 0 0 0 0 0 0 0 0 0
0 0 0 0 0 0 1 0 0 0 0 0 0 0 0 0 0 0 0 0 0 0 0 0 0 0 0 0 0 0 0 0
0 0 0 0 0 0 0 0 0 0 0 0 0 0 0 0 0 0 0 0 0 0 0 0 0 0 0 0 0 0 0 0
0 0 0 0 0 0 0 0 0 0 0 0 0 0 0 0 0 0 0 0 0 0 0 0 0 0 0 0 0 0 0 0
0 0 0 0 0 0 0 0 0 0 0 0 0 0 0 0 0 0 0 0 0 0 0 0 0 0 0 0 0 0 0 0
0 1 0 0 0 0 0 0 0 0 0 0 0 0 0 0 0 0 0 0 0 0 0 0 0 0 0 0 0 0 0 0
0 0 0 0 -0 0 0 0 0 0 0 0 0 0 0 0 0 0 0 0 0 0 0 0 0 0 0 0 0 0 0 0
0 0 -0 -0 -0 0 0 0 0 0 0 0 0 0 0 0 0 0 0 0 0 0 0 0 0 0 0 0 0 0 0 0
-0 -0 0 0 0 0 0 0 0 0 0 0 0 0 0 0 0 0 0 0 0 0 0 0 0 0 0 0 0 0 0 0
-0 0 0 0 0 0 0 0 0 0 0 0 0 0 0 0 0 0 0 0 0 0 0 0 0 0 0 0 0 0 0 0
0 0 0 0 0 0 0 0 0 0 0 0 0 0 0 0 0 0 0 0 0 0 0 0 0 0 0 0 0 0 0 0
0 0 0 0 0 0 0 0 0 0 0 0 0 -0 0 0 0 0 0 0 0 0 0 0 0 0 0 0 0 0 0 0
0 0 0 0 0 0 0 0 0 0 0 0 0 0 0 0 0 0 0 0 0 0 0 0 0 0 0 0 0 0 0 0
0 0 0 0 0 0 0 0 0 0 0 0 0 0 0 0 0 0 0 0 0 0 0 0 0 0 0 0 0 0 0 0
0 0 0 0 0 0 0 0 0 0 0 0 0 0 0 0 0 0 0 0 0 0 0 0 0 0 0 0 0 0 0 0
0 0 0 0 0 0 0 0 0 0 0 0 0 0 0 0 0 0 0 0 0 0 0 0 0 0 0 0 0 0 0 0
0 0 0 0 0 0 0 0 0 0 0 0 0 0 0 0 0 0 0 0 0 0 0 0 0 0 0 0 0 0 0 0
0 0 0 0 0 0 0 0 0 0 0 0 0 0 0 0 0 0 0 0 0 0 0 0 0 0 0 0 0 0 0 0
0 0 0 0 0 0 0 0 0 0 0 0 0 0 0 0 0 0 0 0 0 0 0 0 0 0 0 0 0 0 0 0
Wind_Speed_500mb
25 26 27 29 31 31 33 40 37 39 41 29 33 45 26 19 17 11 7 8 12 4 11 21 19 19 25 27 33 34 38 43
25 27 28 30 34 37 46 40 31 34 31 19 21 21 21 14 11 14 8 7 8 9 7 16 21 22 25 31 34 38 39 39
26 26 28 31 37 39 31 31 27 19 17 22 24 23 16 16 12 8 6 9 13 10 22 18 21 27 32 32 35 38 37 34
30 30 32 32 35 34 28 26 22 23 28 29 25 23 17 12 5 2 9 12 7 13 17 23 27 30 32 34 33 34 35 35
33 33 32 33 31 30 27 30 31 32 29 21 21 14 16 14 6 8 6 12 11 16 21 25 28 32 34 33 30 32 33 38
37 37 34 31 36 35 32 33 32 28 22 22 18 13 6 5 3 6 12 14 17 22 26 32 34 34 34 35 35 32 36 38
41 40 39 36 35 36 36 34 30 28 25 23 22 18 12 8 5 13 15 17 19 23 27 31 34 35 37 34 33 40 36 36
43 41 39 39 40 37 35 34 31 28 25 21 18 12 9 13 9 13 14 18 21 23 26 29 33 34 35 37 42 44 40 44
41 40 38 39 38 37 35 35 31 27 25 21 14 7 6 3 10 13 15 16 17 22 26 32 33 34 33 39 40 37 43 40
42 42 39 38 39 39 38 36 32 29 25 16 12 9 11 9 13 14 14 15 17 24 29 31 34 35 36 40 40 45 40 48
45 44 41 40 39 39 39 38 36 29 21 11 8 8 12 12 14 16 16 17 21 26 30 33 34 33 34 37 42 48 47 45
46 45 43 41 42 43 41 40 36 28 21 12 17 11 16 15 17 18 20 22 24 28 32 33 32 33 32 34 40 44 44 41
49 47 46 46 47 45 45 41 36 29 17 16 8 21 18 19 21 24 26 26 28 31 33 31 32 34 36 39 40 40 29 24
50 49 50 50 49 49 47 43 38 23 18 8 25 24 21 23 26 28 29 30 32 34 33 32 33 33 34 30 34 24 25 26
52 52 52 50 50 52 46 44 32 21 10 20 28 27 24 25 28 30 30 31 33 34 32 33 33 30 29 25 21 22 22 25
50 52 52 52 52 52 48 44 30 20 23 28 30 27 25 27 29 30 29 30 33 32 33 33 31 29 26 25 17 17 25 32
46 52 54 54 54 52 49 41 31 20 27 31 26 25 26 27 28 28 29 32 33 33 34 34 31 24 34 32 27 29 29 32
44 50 54 54 52 48 49 42 27 29 29 29 24 23 25 25 25 28 32 34 33 34 34 32 26 24 35 29 30 34 28 26
39 43 47 48 46 45 44 32 29 29 27 23 22 23 24 24 26 30 33 35 34 34 33 27 24 28 37 33 32 37 24 24
Wind_Direction_500mb
171 179 184 183 182 180 170 181 197 194 195 258 255 235 266 223 197 216 209 225 226 258 300 302 312 317 313 306 314 314 311 309
185 182 183 179 193 184 181 198 204 204 217 195 213 205 181 173 174 190 184 219 280 304 312 318 319 318 318 320 314 313 311 309
187 185 183 181 199 196 186 184 188 185 182 170 167 167 164 176 173 197 225 272 283 325 304 312 309 318 317 312 306 309 307 309
192 183 185 181 185 184 181 180 178 159 162 160 162 166 174 171 193 243 254 277 300 314 315 315 314 313 306 304 303 298 303 301
188 183 176 172 171 161 173 168 164 166 161 172 171 186 193 180 183 231 273 301 307 304 303 307 307 305 301 300 295 292 300 299
169 164 162 163 165 154 162 164 167 167 166 171 171 175 160 146 233 289 290 296 301 304 306 302 301 301 295 289 288 289 294 293
158 157 158 160 158 161 163 165 165 163 160 156 156 153 155 169 254 289 278 289 295 297 295 297 300 299 295 290 281 289 285 287
162 162 161 163 165 165 166 168 165 161 155 149 152 173 229 299 261 259 280 294 298 300 306 308 305 300 294 281 278 282 288 283
174 173 173 172 172 172 170 173 174 169 163 161 188 221 212 242 234 267 297 297 302 299 305 306 305 300 293 280 278 285 281 287
185 183 183 182 182 181 179 181 183 179 174 187 200 214 218 217 265 287 291 297 299 297 303 307 308 303 295 284 282 283 283 285
193 192 192 192 189 188 186 188 188 185 184 202 209 260 240 248 272 285 292 289 290 301 310 312 311 307 301 293 289 287 286 289
201 200 200 198 195 193 190 190 190 185 179 228 249 220 231 260 277 288 286 281 295 304 310 310 310 309 304 294 281 284 286 282
206 207 205 202 199 197 195 193 191 187 240 263 211 219 242 267 284 288 282 282 290 299 304 303 303 303 299 303 299 296 292 299
212 211 210 207 205 202 201 197 192 223 258 235 224 236 253 274 285 283 278 280 285 293 297 298 302 303 303 294 292 293 291 290
218 216 214 213 210 207 207 201 204 248 199 219 239 251 264 278 282 278 277 277 283 292 295 297 299 298 298 298 292 287 296 299
223 221 219 217 214 211 210 209 223 245 209 224 238 256 271 278 279 277 276 276 287 291 294 296 290 290 282 280 285 296 299 298
229 226 225 222 218 215 212 214 217 219 216 227 241 257 270 278 278 276 278 286 292 292 292 293 287 284 268 292 288 298 305 298
235 230 227 224 220 216 213 210 232 213 214 230 245 260 272 279 285 284 286 288 290 292 293 287 277 271 271 289 298 307 307 296
241 234 227 223 221 216 208 218 210 211 223 238 253 269 278 284 287 287 288 288 287 290 291 283 275 267 267 291 304 313 299 297
Wind_Speed_850mb
25 26 27 29 31 31 33 40 37 39 41 29 33 45 26 19 17 11 7 8 12 4 11 21 19 19 25 27 33 34 38 43
25 27 28 30 34 37 46 40 31 34 31 19 21 21 21 14 11 14 8 7 8 9 7 16 21 22 25 31 34 38 39 39
26 26 28 31 37 39 31 31 27 19 17 22 24 23 16 16 12 8 6 9 13 10 22 18 21 27 32 32 35 38 37 34
30 30 32 32 35 34 28 26 22 23 28 29 25 23 17 12 5 2 9 12 7 13 17 23 27 30 32 34 33 34 35 35
33 33 32 33 31 30 27 30 31 32 29 21 21 14 16 14 6 8 6 12 11 16 21 25 28 32 34 33 30 32 33 38
37 37 34 31 36 35 32 33 32 28 22 22 18 13 6 5 3 6 12 14 17 22 26 32 34 34 34 35 35 32 36 38
41 40 39 36 35 36 36 34 30 28 25 23 22 18 12 8 5 13 15 17 19 23 27 31 34 35 37 34 33 40 36 36
43 41 39 39 40 37 35 34 31 28 25 21 18 12 9 13 9 13 14 18 21 23 26 29 33 34 35 37 42 44 40 44
41 40 38 39 38 37 35 35 31 27 25 21 14 7 6 3 10 13 15 16 17 22 26 32 33 34 33 39 40 37 43 40
42 42 39 38 39 39 38 36 32 29 25 16 12 9 11 9 13 14 14 15 17 24 29 31 34 35 36 40 40 45 40 48
45 44 41 40 39 39 39 38 36 29 21 11 8 8 12 12 14 16 16 17 21 26 30 33 34 33 34 37 42 48 47 45
46 45 43 41 42 43 41 40 36 28 21 12 17 11 16 15 17 18 20 22 24 28 32 33 32 33 32 34 40 44 44 41
49 47 46 46 47 45 45 41 36 29 17 16 8 21 18 19 21 24 26 26 28 31 33 31 32 34 36 39 40 40 29 24
50 49 50 50 49 49 47 43 38 23 18 8 25 24 21 23 26 28 29 30 32 34 33 32 33 33 34 30 34 24 25 26
52 52 52 50 50 52 46 44 32 21 10 20 28 27 24 25 28 30 30 31 33 34 32 33 33 30 29 25 21 22 22 25
50 52 52 52 52 52 48 44 30 20 23 28 30 27 25 27 29 30 29 30 33 32 33 33 31 29 26 25 17 17 25 32
46 52 54 54 54 52 49 41 31 20 27 31 26 25 26 27 28 28 29 32 33 33 34 34 31 24 34 32 27 29 29 32
44 50 54 54 52 48 49 42 27 29 29 29 24 23 25 25 25 28 32 34 33 34 34 32 26 24 35 29 30 34 28 26
39 43 47 48 46 45 44 32 29 29 27 23 22 23 24 24 26 30 33 35 34 34 33 27 24 28 37 33 32 37 24 24
Wind_Direction_850mb
171 179 184 183 182 180 170 181 197 194 195 258 255 235 266 223 197 216 209 225 226 258 300 302 312 317 313 306 314 314 311 309
185 182 183 179 193 184 181 198 204 204 217 195 213 205 181 173 174 190 184 219 280 304 312 318 319 318 318 320 314 313 311 309
187 185 183 181 199 196 186 184 188 185 182 170 167 167 164 176 173 197 225 272 283 325 304 312 309 318 317 312 306 309 307 309
192 183 185 181 185 184 181 180 178 159 162 160 162 166 174 171 193 243 254 277 300 314 315 315 314 313 306 304 303 298 303 301
188 183 176 172 171 161 173 168 164 166 161 172 171 186 193 180 183 231 273 301 307 304 303 307 307 305 301 300 295 292 300 299
169 164 162 163 165 154 162 164 167 167 166 171 171 175 160 146 233 289 290 296 301 304 306 302 301 301 295 289 288 289 294 293
158 157 158 160 158 161 163 165 165 163 160 156 156 153 155 169 254 289 278 289 295 297 295 297 300 299 295 290 281 289 285 287
162 162 161 163 165 165 166 168 165 161 155 149 152 173 229 299 261 259 280 294 298 300 306 308 305 300 294 281 278 282 288 283
174 173 173 172 172 172 170 173 174 169 163 161 188 221 212 242 234 267 297 297 302 299 305 306 305 300 293 280 278 285 281 287
185 183 183 182 182 181 179 181 183 179 174 187 200 214 218 217 265 287 291 297 299 297 303 307 308 303 295 284 282 283 283 285
193 192 192 192 189 188 186 188 188 185 184 202 209 260 240 248 272 285 292 289 290 301 310 312 311 307 301 293 289 287 286 289
201 200 200 198 195 193 190 190 190 185 179 228 249 220 231 260 277 288 286 281 295 304 310 310 310 309 304 294 281 284 286 282
206 207 205 202 199 197 195 193 191 187 240 263 211 219 242 267 284 288 282 282 290 299 304 303 303 303 299 303 299 296 292 299
212 211 210 207 205 202 201 197 192 223 258 235 224 236 253 274 285 283 278 280 285 293 297 298 302 303 303 294 292 293 291 290
218 216 214 213 210 207 207 201 204 248 199 219 239 251 264 278 282 278 277 277 283 292 295 297 299 298 298 298 292 287 296 299
223 221 219 217 214 211 210 209 223 245 209 224 238 256 271 278 279 277 276 276 287 291 294 296 290 290 282 280 285 296 299 298
229 226 225 222 218 215 212 214 217 219 216 227 241 257 270 278 278 276 278 286 292 292 292 293 287 284 268 292 288 298 305 298
235 230 227 224 220 216 213 210 232 213 214 230 245 260 272 279 285 284 286 288 290 292 293 287 277 271 271 289 298 307 307 296
241 234 227 223 221 216 208 218 210 211 223 238 253 269 278 284 287 287 288 288 287 290 291 283 275 267 267 291 304 313 299 297